Overview Statistics Trail Chart Weather Telemetry Raw packets
 

This is the latest recevied weather packets stored in our database for station/object EA1HTW-13. If no packets are shown the sender has not sent any weather packets the latest 10 day(s).

<< 44 45 46 47 48 49 50 >>
Time Temp. Humidity Pressure Rain* Wind** Luminosity Snow
1777407442 18.33° C 71% 1000.1 hPa 0.25 mm - - -
1777406902 18.33° C 70% 999.9 hPa 0.51 mm - - -
1777406362 18.33° C 71% 1000.4 hPa 0.51 mm - - -
1777405822 18.33° C 70% 1000.8 hPa 1.02 mm - - -
1777405281 18.33° C 71% 1001 hPa 1.27 mm - - -
1777404742 18.33° C 72% 1001.4 hPa 1.27 mm - - -
1777404202 18.33° C 72% 1001.7 hPa 1.52 mm - - -
1777403662 17.78° C 73% 1002 hPa 2.03 mm - - -
1777403121 17.78° C 73% 1002.4 hPa 3.05 mm - - -
1777402582 17.78° C 73% 1002.5 hPa 3.81 mm - - -
1777402043 18.33° C 74% 1002.6 hPa 4.57 mm - - -
1777401502 18.33° C 74% 1002.9 hPa 5.08 mm - - -
1777400962 18.33° C 73% 1002.7 hPa 5.33 mm - - -
1777400423 18.33° C 73% 1002.9 hPa 5.08 mm - - -
1777399883 18.33° C 73% 1002.8 hPa 4.32 mm - - -
1777399343 18.33° C 72% 1002.7 hPa 3.3 mm - - -
1777398802 18.33° C 71% 1002.9 hPa 2.03 mm - - -
1777398262 18.89° C 69% 1002.7 hPa 1.52 mm - - -
1777397723 19.44° C 68% 1003.1 hPa 1.78 mm - - -
1777397181 20° C 66% 1003.2 hPa 1.52 mm - - -
1777396643 20° C 68% 1003.2 hPa 1.52 mm - - -
1777396102 20° C 66% 1003.2 hPa 1.52 mm - - -
1777395562 20° C 63% 1002.9 hPa 1.27 mm - - -
1777395022 20.56° C 61% 1002.6 hPa 1.27 mm - - -
1777394483 21.67° C 57% 1002.5 hPa 0.25 mm - - -

* Rain latest hour (hover to see other rain measurements)
** Current wind speed in m/s (hover to see current wind gust speed)